sat.trackr.live / text

‹ back to catalog

2024-205G

NORAD 61900 · 2024-205G

PAYLOAD ACTIVE UNKNOWN

§ Identity

Operator
Country
PRC
Launch date
2024-11-11
Launch site
JSC
Launch vehicle
Mass (kg)
RCS (m²)

External: N2YO · Heavens-Above · Gunter

§ Orbital elements

Epoch: 2026-05-25T04:06:32.308128Z

Period
95.34 min
Inclination
97.4134°
Eccentricity
0.0018382
Mean motion
15.10403697 rev/d
Perigee alt
522.3 km
Apogee alt
547.7 km
Semi-major
6,913.1 km
B*
3.2084e-4
RAAN
215.7489°
Arg perigee
224.1512°
Mean anomaly
135.8251°
Rev number
8,468

§ Raw data

2024-205G1 61900U 24205G   26145.17120727  .00005229  00000+0  32084-3 0  99912 61900  97.4134 215.7489 0018382 224.1512 135.8251 15.10403697 84688

JSON: /api/v1/satellites/61900 · /tle

For live sub-satellite position, see the globe view (requires WebGL).

§ Visibility from observer

Set your observer location to see the next 7 days of passes ≥ 10°. The values pass through the URL so the page stays shareable.

No JS? Fill the form by hand. The geolocation button needs JavaScript.